sat.trackr.live / text

‹ back to catalog

STARLINK-11548 [DTC]

NORAD 62829 · 2025-019A

PAYLOAD ACTIVE UNKNOWN

§ Identity

Operator
Country
US
Launch date
2025-01-27
Launch site
AFETR
Launch vehicle
Mass (kg)
RCS (m²)

Purposes: comms

External: N2YO · Heavens-Above · Gunter

§ Orbital elements

Epoch: 2026-09-21T03:24:35.769024Z

Period
91.67 min
Inclination
42.9991°
Eccentricity
0.0001120
Mean motion
15.70878708 rev/d
Perigee alt
355.6 km
Apogee alt
357.1 km
Semi-major
6,734.5 km
B*
1.2216e-3
RAAN
207.5651°
Arg perigee
237.6658°
Mean anomaly
122.4101°
Rev number
9,462

§ Raw data

STARLINK-11548 [DTC]1 62829U 25019A   26264.14208066  .00159604  00000+0  12216-2 0  99992 62829  42.9991 207.5651 0001120 237.6658 122.4101 15.70878708 94623

JSON: /api/v1/satellites/62829 · /tle

For live sub-satellite position, see the globe view (requires WebGL).

§ Visibility from observer

Set your observer location to see the next 7 days of passes ≥ 10°. The values pass through the URL so the page stays shareable.

No JS? Fill the form by hand. The geolocation button needs JavaScript.